Find Satcom K2

NORAD ID: 16276 Int'l Des: 1985-109 Owner: AMC Country: US operational
HEOCIRCULAR

Live Position

Loading 3D Globe...

About Satcom K2

Description loading...

Upcoming Passes

Passes for default location (London). Set your location on the main map for personalized predictions.

Altitude History

Loading altitude history...

Two-Line Element Set

1 16276U 85109D 26103.74414498 .00000062 00000-0 00000-0 0 9996
2 16276 14.7251 352.8790 0010632 287.9660 255.5827 0.99604468124959
Epoch: Apr 13, 2026 • Age: 25 hours

Current Status

Altitude 35978.5 km
Velocity 3.07 km/s
Sub-Earth Point -3.30°S, 63.6°E
Launch Date Nov 27, 1985
Age 40.3 years
Type other

Technical Details

Classification Payload
Mass 966.00 kg
Dry Mass 850.00 kg
Total Mass 1925.00 kg
Length 2.10 m
Diameter 1.50 m
Span 20.00 m
Shape Box + 2 Pan
Manufacturer RCA
Bus Type AS4000
Phase Status In Orbit
Owner/State AMC/US

Most Searched